This demonstration page uses our WeatherBlox Daily Observations layout. Learn more.

Left ArrowRight Arrow

19.664709, -155.981431

Hourly Observations for August 14, 2022

Temp ( °F °C ) Dew Point ( °F °C ) Humidity (%) Winds ( mph kmh ) Pressure ( in mb ) Visibility ( mi km ) Precip ( " mm )
12:53 am 00:53 Clear 77 25 68 20 74 74 SE 7 11 30.01 1016 10 16 0.00 0.00
1:53 am 01:53 Clear 76 24.4 68 20 77 77 SE 6 9 29.99 1016 10 16 0.00 0.00
2:53 am 02:53 Clear 76 24.4 67 19.4 74 74 SE 7 11 29.98 1015 10 16 0.00 0.00
3:53 am 03:53 Clear 76 24.4 68 20 77 77 ESE 6 9 29.98 1015 10 16 0.00 0.00
4:53 am 04:53 Clear 75 23.9 67 19.4 76 76 ESE 7 11 29.98 1015 10 16 0.00 0.00
5:53 am 05:53 Clear 75 23.9 66 18.9 74 74 E 9 15 29.99 1016 10 16 0.00 0.00
6:53 am 06:53 Mostly Cloudy 76 24.4 66 18.9 71 71 NE 5 7 30.01 1016 10 16 0.00 0.00
7:53 am 07:53 Sunny 81 27.2 67 19.4 62 62 VRB 6 9 30.01 1016 10 16 0.00 0.00
8:53 am 08:53 Sunny 82 27.8 68 20 63 63 S 10 17 30.02 1017 10 16 0.00 0.00
9:53 am 09:53 Sunny 84 28.9 70 21.1 63 63 S 12 19 30.02 1017 10 16 0.00 0.00
10:53 am 10:53 Mostly Sunny 84 28.9 70 21.1 63 63 SSW 10 17 30.02 1017 10 16 0.00 0.00
11:53 am 11:53 Sunny 85 29.4 70 21.1 61 61 SSW 14 22 30.02 1017 10 16 0.00 0.00
12:53 pm 12:53 Partly Cloudy 86 30 71 21.7 61 61 SW 12 19 30.00 1016 10 16 0.00 0.00
1:53 pm 13:53 Cloudy 83 28.3 70 21.1 65 65 W 9 15 30.00 1016 10 16 0.00 0.00
2:53 pm 14:53 Mostly Cloudy 85 29.4 70 21.1 61 61 WSW 12 19 29.98 1015 10 16 0.00 0.00
3:53 pm 15:53 Mostly Cloudy 84 28.9 70 21.1 63 63 W 13 20 29.98 1015 10 16 0.00 0.00
4:53 pm 16:53 Cloudy 83 28.3 70 21.1 65 65 W 12 19 29.97 1015 10 16 0.00 0.00
5:53 pm 17:53 Cloudy 82 27.8 70 21.1 67 67 W 10 17 29.98 1015 10 16 0.00 0.00
6:53 pm 18:53 Mostly Cloudy 81 27.2 69 20.6 67 67 W 8 13 29.99 1016 10 16 0.00 0.00
7:53 pm 19:53 Mostly Cloudy 81 27.2 69 20.6 67 67 W 8 13 30.01 1016 10 16 0.00 0.00
8:53 pm 20:53 Cloudy 80 26.7 70 21.1 71 71 W 6 9 30.02 1017 10 16 0.00 0.00
9:53 pm 21:53 Partly Cloudy 80 26.7 70 21.1 71 71 WNW 7 11 30.03 1017 10 16 0.00 0.00
10:16 pm 22:16 Mostly Cloudy 80 26.7 70 21.1 71 71 WNW 6 9 30.04 1017 10 16 0.00 0.00
10:23 pm 22:23 Mostly Cloudy 80 26.7 70 21.1 71 71 NW 7 11 30.04 1017 10 16 0.00 0.00
10:53 pm 22:53 Mostly Cloudy 79 26.1 69 20.6 72 72 N 3 6 30.04 1017 10 16 0.00 0.00
11:26 pm 23:26 Mostly Cloudy 79 26.1 65 18.3 62 62 NE 5 7 30.04 1017 10 16 0.00 0.00
11:45 pm 23:45 Partly Cloudy 79 26.1 64 17.8 60 60 Calm 30.03 1017 10 16 0.00 0.00
11:53 pm 23:53 Mostly Clear 79 26.1 64 17.8 60 60 Calm 30.03 1017 10 16 0.00 0.00

Powered by AerisWeather